Regional Weather Roundup
Issued by NWS

Home | Current Version | Previous Version | Graphics & Text | Print | Product List | Glossary On
Versions: 1 2 3 4 5 6 7 8 9 10 11 12 13 14 15 16 17 18 19 20 21 22 23 24 25 26 27 28 29 30 31 32 33 34 35 36 37 38 39 40 41 42 43 44 45 46 47 48 49 50
077
ASUS43 KOAX 240402
RWRNE

WEATHER ROUNDUP FOR NEBRASKA
NATIONAL WEATHER SERVICE OMAHA NE
1000 PM CST THU FEB 23 2017

NOTES: SATELLITE DATA IS BEING USED TO AUGMENT CLOUD COVER ABOVE
       12000 FEET.
       "FAIR" INDICATES FEW OR NO CLOUDS BELOW 12,000 FEET WITH NO
       SIGNIFICANT WEATHER AND/OR OBSTRUCTIONS TO VISIBILITY.

  * THESE STATIONS DO NOT REPORT WEATHER SUCH AS RAIN...SNOW OR FOG.

NEZ001>004-019>022-054>056-240500-
NEBRASKA PANHANDLE

CITY           SKY/WX    TMP DP  RH WIND       PRES   REMARKS
SCOTTSBLUFF    LGT SNOW  23  19  85 N12       29.89S FOG     WCI  12
ALLIANCE       LGT SNOW  21  19  92 N21       29.86R FOG     WCI   5
CHADRON        LGT SNOW  25  21  85 NE13      29.94S FOG     WCI  14
KIMBALL        LGT SNOW  21  20  97 N16       29.83R WCI   7
SIDNEY         CLOUDY    21  17  84 N24G32    29.82S FOG     WCI   4
$$

NEZ057>060-069>072-079>082-240500-
SOUTHWEST NEBRASKA

CITY           SKY/WX    TMP DP  RH WIND       PRES   REMARKS
NORTH PLATTE   LGT SNOW  26  22  84 N13       29.78R FOG     WCI  15
IMPERIAL       LGT SNOW  24  21  88 N18       29.80R FOG     WCI  10
LEXINGTON      CLOUDY    28  24  86 N15       29.75R WCI  17
MCCOOK         MOCLDY    26  24  92 N16       29.76R WCI  14
OGALLALA       LGT SNOW  26  22  87 N15G26    29.82S WCI  14
$$

NEZ005>010-023>029-035>040-094-240500-
NORTH CENTRAL NEBRASKA

CITY           SKY/WX    TMP DP  RH WIND       PRES   REMARKS
VALENTINE      FOG       24  20  84 N22G31    29.88R VSB 1   WCI   9
AINSWORTH      CLOUDY    24  23  97 N26       29.85R WCI   7
BROKEN BOW     LGT SNOW  27  24  89 N22G29    29.75R FOG     WCI  13
O`NEILL        CLOUDY    27  26  96 N21G28    29.80S WCI  13
ORD            LGT SNOW  28  23  81 N17       29.75R WCI  16
THEDFORD       CLOUDY    24  22  92 N16G22    29.82R WCI  11
$$

NEZ041-046>049-061>064-073>077-083>087-240500-
SOUTH CENTRAL NEBRASKA

CITY           SKY/WX    TMP DP  RH WIND       PRES   REMARKS
GRAND ISLAND   MIX PCPN  29  29 100 N17       29.70S WCI  17
AURORA         CLOUDY    31  29  94 N17G24    29.68R WCI  19
HASTINGS       CLOUDY    30  28  92 N16G28    29.69R WCI  19
HEBRON         CLOUDY    33  32  96 N14       29.63R WCI  24
HOLDREGE       CLOUDY    29  28  94 N12       29.71S FOG     WCI  20
KEARNEY *      CLOUDY    30  25  80 N18       29.72R WCI  18
YORK           LGT RAIN  32  30  93 N20G26    29.66R WCI  20
$$

NEZ011>018-030>034-042>045-240500-
NORTHEAST NEBRASKA

CITY           SKY/WX    TMP DP  RH WIND       PRES   REMARKS
NORFOLK        LGT SNOW  29  26  89 NE20G26   29.72R FOG     WCI  16
ALBION         LGT SNOW  31  27  85 N13G22    29.73R WCI  21
BLAIR          MIX PCPN  33  32  96 N15G23    29.60F WCI  23
FREMONT        LGT SNOW  32  32 100 N7        29.67R WCI  26
TEKAMAH        LGT SNOW  33  30  88 N22G29    29.66R VSB 1   WCI  21
WAYNE          LGT SNOW  30  29  97 N22       29.72F WCI  17
$$

NEZ050>053-065>068-078-088>093-240500-
SOUTHEAST NEBRASKA

CITY           SKY/WX    TMP DP  RH WIND       PRES   REMARKS
LINCOLN        LGT SNOW  33  32  96 N21       29.64F FOG     WCI  21
OMAHA EPPLEY   TSTM      35  31  85 N17       29.59R WCI  25
BEATRICE       RAIN      35  34  96 N20       29.59F WCI  24
FALLS CITY     CLOUDY    44  41  89 NW15      29.48R
NEBRASKA CITY  RAIN      39  39 100 NW15G21   29.56R WCI  31
PLATTSMOUTH    LGT RAIN  37  34  90 NW17      29.56R WCI  27
$$

NEZ044-045-051>053-067-240500-
OMAHA AREA

CITY           SKY/WX    TMP DP  RH WIND       PRES   REMARKS
OMAHA EPPLEY   TSTM      35  31  85 N17       29.59R WCI  25
BLAIR          MIX PCPN  33  32  96 N15G23    29.60F WCI  23
FREMONT        LGT SNOW  32  32 100 N7        29.67R WCI  26
MILLARD        CLOUDY    37  35  92 NW10      29.64R WCI  29
OFFUTT AFB     TSTM      36  34  92 NW10G21   29.58R WCI  28
PLATTSMOUTH    LGT RAIN  37  34  90 NW17      29.56R WCI  27
WAHOO          LGT SNOW  32  32  98 N17       29.66R WCI  21
$$




USA.gov is the U.S. government's official web portal to all federal, state and local government web resources and services.